Regional Weather Roundup
Issued by NWS

Home | Current Version | Previous Version | Text Only | Print | Product List | Glossary Off
Versions: 1 2 3 4 5 6 7 8 9 10 11 12 13 14 15 16 17 18 19 20 21 22 23 24 25 26 27 28 29 30 31 32 33 34 35 36 37 38 39 40 41 42 43 44 45 46 47 48 49 50

000
ASUS45 KBOU 301307
RWRCO

WEATHER ROUNDUP FOR COLORADO
NATIONAL WEATHER SERVICE DENVER/BOULDER CO
700 AM MDT SAT AUG 30 2014

NOTE: "FAIR" INDICATES FEW OR NO CLOUDS BELOW 12000 FEET WITH NO
SIGNIFICANT WEATHER AND/OR OBSTRUCTIONS TO VISIBILITY.

COZ001>005-013-030-031-301400-
...NORTHWEST COLORADO...

CITY           SKY/WX    TMP DP  RH WIND       PRES   REMARKS
CRAIG          PTCLDY    45  43  93 CALM      30.17S
HAYDEN         CLEAR     46  39  76 E9        30.20R
MEEKER         PTCLDY    49  42  77 E6        30.20S
MOUNT WERNER   NOT AVBL
STEAMBOAT SPGS CLEAR     45  43  93 CALM      30.23R
WALDEN         CLEAR     36  34  93 E8        30.28S
$$

COZ006>008-011-301400-
...WEST CENTRAL VALLEYS...

CITY           SKY/WX    TMP DP  RH WIND       PRES   REMARKS
GRAND JUNCTION PTCLDY    58  49  72 SE10      30.10R
MONTROSE       CLEAR     52  44  74 S7        30.21R
EAGLE          CLEAR     43  41  93 VRB5      30.29S
RIFLE          PTCLDY    50  46  86 S3        30.18R
DELTA          CLEAR     56  47  71 NE9       30.17R HAZE
NUCLA          PTCLDY    52  41  66 SE9       30.22S
$$

COZ017>023-064>068-301400-
...SOUTHWEST COLORADO...

CITY           SKY/WX    TMP DP  RH WIND       PRES   REMARKS
DURANGO        CLEAR     47  40  76 CALM      30.25R
CORTEZ         CLEAR     46  42  86 E7        30.20R
PAGOSA SPRINGS CLEAR     45  37  74 CALM      30.32S
TELLURIDE      CLEAR     46  37  71 SE7       30.40R
WOLF CREEK PAS PTCLDY    41  32  70 SW14G21   30.56R
$$

COZ009-010-012-014-032>034-037-058>063-301400-
...CENTRAL COLORADO...

CITY           SKY/WX    TMP DP  RH WIND       PRES   REMARKS
ASPEN          CLEAR     44  37  76 SW7       30.30R
BUENA VISTA    CLEAR     40  36  84 NW3       30.35S
COPPER MTN     CLEAR     45  30  57 S13G20    30.55R
BERTHOUD PASS  FAIR      37  37 100 W12G21    30.57R
COTTONWOOD PAS CLEAR     52  32  46 NW3       30.43R
GUNNISON       CLEAR     39  36  87 CALM      30.38R
KREMMLING      CLEAR     36  34  93 CALM      30.33R
LEADVILLE      CLEAR     32  30  92 CALM      30.43R
MONARCH PASS   CLEAR     39  32  75 SW16      30.65R
SALIDA         CLEAR     46  40  77 NW3       30.40S
SUNLIGHT       CLEAR     46  37  71 CALM      30.48S
WILKERSON PASS NOT AVBL
$$

COZ069>075-301400-
...SAN LUIS VALLEY/SANGRE DE CRISTO MOUNTAINS...

CITY           SKY/WX    TMP DP  RH WIND       PRES   REMARKS
ALAMOSA        CLEAR     44  40  85 NW5       30.32R
LA VETA PASS   NOT AVBL
SAGUACHE       NOT AVBL
$$

COZ035-036-038>040-301400-
...NORTHERN COLORADO FRONT RANGE...

CITY           SKY/WX    TMP DP  RH WIND       PRES   REMARKS
DENVER INTL AP PTCLDY    53  44  71 S10       30.10S
DMNS CITY PARK   N/A     56  44  63 S6        30.10S
AURORA         PTCLDY    56  43  60 SW7       30.12S
FRONT RANGE AP CLEAR     54  46  76 S7        30.12R
ERIE MUNI ARPT CLEAR     46  45  94 CALM      30.09S
BOULDER MUN AP CLEAR     54  50  87 CALM      30.09S
CENTENNIAL     PTCLDY    54  42  64 S6        30.13S
BROOMFIELD     PTCLDY    54  45  71 W3        30.12R
FORT COLLINS   CLEAR     52  48  87 N5        30.10S
LONGMONT       CLEAR     48  45  90 CALM      30.11R FOG
$$

COZ041-046-047-076>085-087-088-301400-
...PIKES PEAK/PALMER DIVIDE AND SOUTHERN FOOTHILLS...

CITY           SKY/WX    TMP DP  RH WIND       PRES   REMARKS
COLO. SPRINGS  PTCLDY    53  43  68 E3        30.19S
A. F. ACADEMY  CLEAR     46  42  84 N6        30.20S
ELLICOTT       CLEAR     51  44  77 SW6       30.17S
FALCON         NOT AVBL
FORT CARSON    CLEAR     50  44  78 N8        30.16S
LIMON          CLEAR     51  46  83 VRB5      30.12S
MONUMENT HILL  CLEAR     52  37  58 SW10      30.21S
TRINIDAD       PTCLDY    60  47  61 W12       30.18R
$$

COZ042>045-048>051-090-091-301400-
...NORTHEAST COLORADO...

CITY           SKY/WX    TMP DP  RH WIND       PRES   REMARKS
GREELEY ARPT   CLEAR     46  39  76 NW3       30.09R
AKRON          CLEAR     57  53  86 S10       30.07S
BURLINGTON     CLEAR     54  51  90 SW3       30.09R
WRAY             N/A    N/A N/A N/A CALM      30.05S
STERLING       CLEAR     57  55  94 CALM      30.04S
HOLYOKE        CLEAR     55  54  94 CALM      30.05R
FORT MORGAN    CLEAR     54  48  81 CALM      30.07S
$$

COZ086-089-092>099-301400-
...SOUTHEAST COLORADO...

CITY           SKY/WX    TMP DP  RH WIND       PRES   REMARKS
PUEBLO         CLEAR     53  47  79 E6        30.11S
LA JUNTA       CLEAR     59  51  75 SW6       30.09S
LAMAR          CLEAR     57  52  83 W3        30.07R
SPRINGFIELD      N/A     59  53  80 CALM      30.11S
$$


USA.gov is the U.S. government's official web portal to all federal, state and local government web resources and services.